Simultaneous Nadir Overpasses (SNOs) Predictions

Prediction of SNOs between METOP-B and NOAA-19 Satellite Orbit:

Table of predicted SNOs for the next 14.0 days since TLE Epoch: 10/10/2015
Index Date (METOP-B) Time (METOP-B) Lat,Lon (METOP-B) SZA (METOP-B ) Date (NOAA-19) Time (NOAA-19) Lat,Lon (NOAA-19) SZA (NOAA-19 ) Distance(km) Time Diff (sec)
1 10/15/2015 20:40:23 75.31,-131.80 83.87 10/15/2015 20:39:10 75.31,-131.70 83.87 3.05 73
2 10/15/2015 21:31:04 -75.33, 35.59 96.10 10/15/2015 21:30:06 -75.33, 35.49 96.10 2.65 58
3 10/15/2015 22:21:45 75.29,-157.21 83.87 10/15/2015 22:21:12 75.29,-157.14 83.87 1.96 33
4 10/15/2015 23:12:26 -75.31, 10.18 96.10 10/15/2015 23:12:08 -75.31, 10.05 96.10 3.75 18
5 10/16/2015 00:03:07 75.26, 177.39 83.87 10/16/2015 00:03:14 75.27, 177.42 83.88 0.85 7
6
